Wind_Speed
12 13 13 13 15 17 17 19 20 19 19 21 23 25 25 24 24 23 23 22 21 19 19 19 20 22 22 10 28 14 17 18 13 7 6 9 13 15 7 6 13 8 10 23 29 29 27
12 14 15 16 17 18 19 20 20 20 21 22 24 25 27 26 25 24 24 23 22 21 21 19 19 21 17 11 6 4 9 12 11 12 13 9 8 13 8 8 7 8 16 23 25 26 25
13 16 17 18 18 16 20 18 21 21 23 23 24 27 29 26 25 24 24 24 23 22 21 19 19 18 17 38 15 19 20 20 14 14 14 14 6 15 4 4 9 16 13 14 13 11 8
16 14 16 20 19 19 20 18 21 22 23 25 23 24 26 26 26 25 25 25 23 23 20 17 17 10 17 18 16 14 7 19 16 16 15 14 11 12 8 6 6 4 4 6 5 8 7
15 17 17 19 22 21 21 22 22 24 23 22 22 24 27 30 27 25 25 24 22 23 21 13 12 10 17 9 11 1 2 2 9 16 19 17 11 7 3 3 2 3 8 12 7 3 6
14 16 18 19 19 20 22 24 22 22 24 24 22 24 28 29 28 25 23 22 8 8 6 8 8 6 19 3 2 2 2 2 1 3 6 11 7 3 1 4 9 6 6 5 3 3 7
16 19 21 21 22 21 21 22 20 19 20 24 27 27 29 31 33 23 19 17 8 1 4 11 11 14 14 5 9 7 1 2 4 3 4 2 3 7 8 6 4 4 7 9 6 5 7
17 18 20 19 19 19 22 20 19 19 21 22 24 25 22 28 31 17 14 7 12 15 13 25 32 41 36 26 13 14 8 3 4 6 3 3 7 6 7 6 7 6 3 7 5 5 12
20 19 21 21 22 22 23 20 19 19 20 25 24 22 20 24 28 11 7 8 11 12 7 18 19 20 28 31 15 27 22 8 3 3 6 6 3 5 5 5 8 6 5 3 5 14 11
15 18 20 20 22 23 21 21 19 21 23 23 25 20 20 24 16 9 7 12 7 9 4 7 7 9 11 9 6 25 11 13 5 9 3 6 2 3 1 3 2 12 6 5 7 6 5
18 19 21 20 20 21 20 20 20 22 22 22 22 20 17 16 23 18 12 12 4 1 5 5 8 10 18 15 5 5 12 16 6 5 5 4 4 2 1 3 6 6 4 7 1 8 9
17 19 20 20 20 21 21 22 22 21 19 19 17 17 17 17 20 14 12 9 3 2 8 5 7 8 9 7 3 11 6 9 9 5 2 5 4 6 8 3 1 2 4 5 6 8 10
15 15 17 19 20 22 23 22 22 20 20 19 19 17 17 16 19 14 14 6 3 6 9 6 5 8 12 6 5 6 9 7 6 4 4 2 5 4 5 4 3 5 5 3 5 6 11
17 19 20 21 21 21 20 19 18 18 18 17 18 17 19 20 17 14 10 3 8 5 8 9 3 9 7 6 7 6 8 5 3 4 3 4 3 6 6 7 4 6 5 3 6 4 3
19 19 21 18 19 20 20 19 18 17 16 15 16 17 24 20 13 11 7 5 3 4 10 13 6 2 3 6 5 7 4 3 7 7 6 5 4 1 5 3 6 4 4 5 5 2 1
19 18 17 18 20 19 19 18 18 16 15 13 14 17 25 13 9 9 5 4 6 6 16 10 6 8 7 8 4 4 2 3 2 6 3 2 2 4 4 4 5 8 2 2 3 3 3
20 19 20 20 21 20 20 18 17 15 12 9 10 8 8 3 12 7 4 7 7 14 17 9 6 4 5 8 6 3 3 2 3 4 6 2 3 4 2 5 5 3 3 4 4 3 1
17 20 19 20 21 20 20 17 16 11 10 7 4 4 1 6 4 5 3 2 7 9 13 7 6 3 3 5 4 4 4 4 1 2 3 2 1 4 9 11 6 8 4 4 3 3 3
19 19 20 21 22 20 18 16 13 10 8 7 4 8 12 7 4 6 3 7 6 10 11 6 9 8 10 5 4 3 4 2 3 1 3 2 3 4 6 5 6 3 8 11 8 2 4
19 20 21 22 20 17 16 14 11 9 8 10 2 3 2 7 3 3 7 6 8 9 9 8 9 9 6 5 4 2 2 4 7 4 4 1 3 3 4 7 4 6 3 12 10 3 3
19 20 20 20 18 16 17 16 12 11 11 12 6 4 3 1 4 6 4 4 3 4 4 9 3 2 7 4 6 4 3 4 5 2 1 3 1 2 7 14 6 6 6 7 4 12 4
20 20 19 19 17 16 14 14 14 13 13 15 6 3 3 7 5 2 6 3 3 5 2 6 5 10 5 4 4 6 2 2 1 5 3 4 2 3 4 8 10 14 14 11 5 11 11
18 19 19 19 18 16 13 9 12 17 19 12 13 12 3 5 4 3 1 3 6 8 8 13 10 3 3 1 7 12 8 3 2 2 1 2 3 4 3 6 12 8 7 15 7 12 7
20 18 19 20 19 16 14 12 11 19 24 23 15 10 4 3 2 3 8 14 11 10 4 5 7 3 2 5 12 14 9 9 5 5 7 3 2 2 3 3 5 7 13 9 5 4 15
19 19 21 22 21 19 16 15 15 15 25 27 21 12 5 3 4 6 7 7 13 19 7 2 4 3 2 3 3 5 3 4 5 8 7 9 4 1 2 3 10 14 2 3 10 5 8
19 22 21 20 20 20 19 18 17 18 19 30 29 24 13 2 5 12 3 7 4 3 6 5 7 2 1 2 2 2 3 4 3 3 8 9 5 4 1 3 4 5 6 21 3 3 4
21 21 22 22 20 20 19 20 21 21 21 23 32 28 24 9 17 14 1 1 3 3 2 4 6 4 2 1 2 3 3 3 3 3 2 3 1 12 7 3 6 5 16 18 8 3 10
21 21 21 22 17 15 16 17 20 23 23 26 30 31 31 12 19 9 5 6 0 2 1 7 4 2 1 1 1 2 2 4 3 4 4 6 5 4 3 4 9 18 7 4 5 18 20
21 21 20 17 15 14 15 17 18 22 26 27 26 27 29 22 7 4 16 24 23 14 8 3 3 3 2 2 2 2 2 2 3 3 2 4 5 3 6 4 7 17 17 22 17 21 19
Wind_Direction
314 309 310 308 309 306 310 313 312 315 315 317 316 317 321 308 297 300 303 304 304 302 300 303 304 307 309 284 258 249 256 281 269 268 275 234 205 204 202 210 234 234 246 250 257 261 260
311 311 306 307 311 312 310 301 306 308 310 314 317 316 319 316 304 299 298 301 300 298 296 297 300 303 300 266 275 176 228 264 248 244 251 237 222 230 254 231 218 261 243 250 254 259 262
309 318 317 306 298 304 307 311 301 307 309 311 313 316 318 315 307 302 300 300 297 290 290 293 295 293 268 254 277 277 266 260 241 228 243 231 291 259 264 295 263 257 258 268 260 259 259
311 305 313 313 314 304 293 306 307 307 298 302 307 313 319 310 312 303 304 300 293 289 287 285 280 269 258 280 271 277 258 237 232 220 237 246 284 300 228 255 310 285 268 261 250 238 240
313 316 311 304 308 313 308 294 298 300 308 305 305 309 314 315 310 310 308 302 298 287 269 258 253 238 265 273 255 187 79 79 227 240 239 249 271 255 252 168 345 247 253 263 281 241 253
302 299 299 304 313 312 314 308 288 302 290 300 304 307 314 314 313 313 311 315 320 291 222 217 219 230 256 223 142 223 280 338 317 273 253 230 231 193 143 140 223 217 259 258 258 309 316
303 300 301 300 302 306 308 311 292 297 299 292 299 300 304 310 317 313 321 351 356 202 255 225 207 226 281 261 283 209 215 253 224 216 187 206 159 215 198 217 204 285 276 278 278 301 329
303 304 304 306 303 298 304 311 295 304 303 299 304 302 304 309 314 307 313 330 335 309 290 277 259 251 253 260 298 248 266 0 194 202 170 321 248 233 216 235 255 247 270 281 288 318 350
301 295 297 296 299 297 300 303 300 303 306 304 302 305 304 316 315 299 286 1 5 336 278 287 246 240 238 247 239 262 260 222 194 234 185 180 234 151 206 252 251 217 220 241 293 330 316
311 308 305 306 298 301 299 297 295 297 301 298 297 303 307 314 311 295 275 315 322 347 292 269 215 241 182 185 226 236 233 179 203 203 186 224 280 148 5 255 269 267 179 242 263 351 257
302 300 298 297 297 299 300 299 301 301 296 291 290 298 302 307 310 300 315 306 326 340 297 193 152 155 158 169 135 193 208 189 182 159 148 231 162 105 148 213 265 271 194 230 276 262 272
296 295 296 299 299 298 299 299 300 297 301 300 296 293 293 293 297 284 310 308 309 217 253 205 138 169 150 200 191 145 152 179 202 148 309 216 169 163 192 149 189 314 241 308 248 246 248
311 311 312 310 303 302 296 297 300 293 298 300 301 295 280 287 290 302 291 303 214 231 312 167 171 171 194 176 178 150 163 162 160 143 210 262 229 222 162 183 136 164 166 179 216 206 236
300 304 304 302 298 298 303 300 301 299 298 297 300 290 279 274 283 296 302 232 228 283 282 334 109 167 190 184 185 156 137 161 232 117 133 171 319 172 190 198 175 182 176 228 217 220 209
299 302 304 305 305 299 298 298 300 298 305 299 299 295 286 269 279 255 266 226 236 265 2 332 327 118 256 218 181 130 128 159 201 173 169 179 256 122 149 137 175 167 206 256 306 297 105
297 303 302 302 305 306 301 299 299 295 295 306 304 306 294 280 213 204 229 236 243 299 333 325 3 22 15 26 55 82 132 339 54 188 88 229 281 249 166 138 205 229 18 191 203 232 224
293 300 299 300 303 303 297 296 298 295 293 296 300 302 327 213 185 193 235 237 279 302 355 338 5 18 10 24 352 54 58 332 43 2 104 355 150 291 80 204 163 199 222 223 270 253 247
290 301 300 299 302 302 298 293 291 289 283 279 269 262 102 209 165 222 234 272 304 316 344 313 310 69 30 353 351 18 129 113 108 347 81 137 210 247 239 250 173 182 223 217 259 197 186
290 298 299 301 301 303 300 284 279 276 262 246 240 268 280 242 189 245 240 269 278 285 298 309 328 16 347 348 8 64 91 90 120 66 152 217 70 322 325 41 100 257 257 227 244 292 244
286 292 296 299 296 298 299 280 260 262 237 223 284 303 256 214 147 303 270 267 268 276 286 269 266 307 354 0 335 315 114 229 204 210 160 18 133 181 318 309 187 249 237 290 230 226 208
281 288 292 297 295 294 291 281 241 237 220 206 208 255 304 267 187 219 271 294 299 259 315 359 304 5 2 321 342 332 36 29 19 314 111 105 90 277 261 303 216 244 277 287 262 244 246
277 282 288 295 291 293 297 292 223 222 215 212 183 216 341 297 281 227 214 230 202 292 255 310 345 332 29 16 288 292 349 35 146 1 36 10 267 289 267 298 292 285 237 241 254 269 238
282 279 284 290 288 285 277 281 227 216 211 204 227 239 325 311 329 358 245 332 342 329 269 252 278 317 7 172 341 311 303 223 207 141 83 39 354 348 252 350 317 288 225 209 218 186 164
280 273 284 287 281 275 268 255 240 222 224 220 218 215 199 246 256 284 325 325 319 316 302 340 346 164 269 298 311 336 271 267 241 232 199 186 175 228 249 316 264 257 319 235 135 294 207
270 274 281 281 275 267 259 255 246 235 224 221 218 206 205 266 261 289 298 318 347 346 330 253 357 342 271 334 12 344 320 330 251 230 220 201 169 300 213 220 307 299 10 201 176 11 54
269 276 271 276 272 267 260 252 245 232 232 222 224 219 214 313 244 250 311 323 310 318 346 17 23 15 71 84 102 195 242 237 287 281 231 209 177 166 134 233 252 262 358 329 116 103 70
274 272 280 277 267 260 258 249 238 230 223 222 225 220 216 242 258 272 250 72 9 25 292 316 344 358 83 119 135 191 251 280 268 252 52 110 187 212 219 238 283 320 321 320 201 154 80
270 273 270 273 256 251 249 244 233 230 220 218 222 229 213 230 248 247 254 241 172 62 292 331 357 12 51 154 190 225 195 253 291 248 207 181 179 195 180 220 248 347 327 24 75 86 89
273 270 271 250 251 255 252 245 237 227 224 221 216 229 222 219 243 247 255 250 244 242 274 307 322 295 225 190 227 314 314 338 216 268 43 223 186 207 180 186 72 55 73 65 69 82 73
Height
1531 1532 1530 1528 1528 1527 1524 1523 1520 1519 1517 1515 1512 1509 1505 1503 1500 1497 1495 1493 1491 1490 1488 1486 1484 1481 1478 1478 1463 1465 1463 1462 1464 1465 1465 1465 1465 1467 1467 1464 1464 1464 1461 1461 1461 1460 1461
1529 1529 1528 1527 1526 1523 1522 1521 1518 1516 1515 1513 1510 1507 1504 1501 1498 1494 1492 1489 1488 1486 1484 1483 1482 1480 1478 1475 1458 1458 1459 1459 1460 1461 1461 1463 1461 1463 1463 1461 1462 1456 1457 1455 1455 1454 1455
1526 1526 1523 1523 1521 1521 1521 1518 1517 1515 1512 1509 1508 1504 1501 1498 1494 1491 1487 1486 1482 1480 1479 1479 1478 1476 1472 1448 1455 1455 1455 1454 1456 1457 1457 1459 1460 1462 1459 1458 1455 1453 1454 1451 1448 1449 1449
1524 1522 1520 1521 1517 1517 1517 1515 1514 1512 1509 1506 1504 1501 1498 1495 1491 1486 1484 1480 1476 1475 1473 1474 1472 1473 1460 1448 1449 1448 1448 1448 1451 1452 1454 1456 1456 1457 1455 1455 1452 1452 1451 1454 1442 1444 1445
1521 1519 1517 1517 1515 1512 1513 1512 1510 1509 1507 1503 1501 1499 1496 1492 1489 1483 1480 1474 1469 1468 1466 1468 1468 1469 1454 1445 1445 1445 1444 1444 1448 1448 1450 1453 1453 1454 1453 1455 1459 1455 1459 1451 1447 1442 1445
1518 1517 1515 1513 1512 1509 1508 1507 1506 1504 1503 1501 1498 1496 1493 1490 1485 1481 1476 1470 1464 1461 1462 1464 1467 1468 1448 1442 1442 1441 1443 1442 1445 1447 1449 1449 1452 1452 1453 1456 1459 1458 1456 1450 1451 1443 1440
1515 1513 1511 1509 1508 1506 1505 1503 1502 1500 1498 1497 1496 1494 1490 1486 1482 1478 1474 1469 1468 1466 1462 1456 1453 1445 1439 1440 1439 1439 1439 1440 1443 1445 1449 1446 1455 1455 1450 1448 1447 1448 1448 1448 1445 1443 1447
1510 1509 1508 1505 1505 1502 1501 1499 1498 1497 1495 1494 1491 1490 1486 1483 1480 1476 1475 1472 1472 1473 1456 1447 1442 1442 1435 1439 1440 1435 1438 1440 1441 1446 1446 1451 1453 1446 1445 1445 1446 1446 1449 1448 1442 1439 1442
1506 1505 1504 1502 1501 1499 1498 1496 1495 1493 1492 1491 1490 1487 1484 1480 1477 1475 1473 1472 1469 1469 1461 1432 1427 1426 1428 1433 1433 1430 1435 1438 1441 1443 1446 1453 1445 1440 1445 1446 1446 1444 1447 1447 1449 1441 1441
1503 1501 1500 1498 1496 1496 1494 1492 1491 1489 1488 1487 1485 1484 1481 1479 1478 1472 1471 1470 1468 1467 1464 1431 1422 1418 1420 1424 1427 1424 1429 1434 1439 1442 1445 1448 1444 1444 1447 1448 1447 1447 1440 1442 1442 1456 1461
1499 1498 1496 1495 1494 1493 1491 1489 1488 1486 1484 1483 1482 1480 1479 1478 1475 1472 1471 1467 1466 1466 1465 1411 1413 1414 1416 1421 1420 1422 1425 1430 1434 1439 1443 1443 1443 1444 1447 1446 1446 1444 1439 1440 1446 1454 1456
1495 1494 1493 1491 1490 1489 1487 1485 1483 1481 1480 1478 1477 1476 1476 1475 1473 1471 1468 1466 1466 1467 1451 1410 1408 1412 1417 1417 1417 1420 1425 1428 1433 1437 1437 1438 1438 1441 1442 1442 1442 1441 1442 1446 1448 1453 1448
1492 1490 1489 1488 1486 1484 1483 1481 1479 1477 1476 1475 1473 1472 1471 1471 1468 1470 1468 1467 1466 1452 1416 1406 1408 1409 1411 1413 1416 1418 1423 1428 1435 1442 1443 1438 1438 1436 1438 1442 1442 1443 1447 1447 1452 1445 1430
1489 1487 1485 1484 1483 1481 1479 1477 1475 1473 1472 1471 1469 1468 1467 1466 1467 1468 1467 1466 1458 1427 1417 1403 1400 1406 1411 1406 1409 1416 1423 1430 1430 1431 1440 1447 1442 1433 1433 1433 1436 1438 1441 1435 1435 1433 1424
1484 1482 1481 1480 1479 1477 1475 1474 1472 1470 1469 1468 1466 1464 1460 1461 1464 1465 1467 1456 1443 1430 1424 1420 1406 1408 1409 1401 1405 1410 1422 1427 1426 1427 1436 1440 1436 1426 1426 1427 1433 1437 1441 1436 1435 1430 1429
1480 1478 1477 1476 1475 1473 1472 1470 1469 1467 1467 1466 1464 1462 1454 1455 1460 1462 1462 1450 1441 1433 1431 1423 1417 1415 1416 1407 1406 1410 1418 1424 1424 1422 1425 1428 1435 1423 1425 1428 1431 1430 1439 1435 1434 1430 1423
1475 1474 1473 1472 1471 1469 1468 1467 1465 1465 1464 1464 1464 1461 1453 1452 1456 1460 1454 1448 1439 1438 1434 1429 1422 1421 1420 1419 1414 1415 1424 1426 1423 1423 1423 1427 1431 1430 1423 1423 1425 1433 1435 1438 1429 1423 1422
1470 1469 1468 1467 1466 1465 1463 1463 1462 1462 1462 1463 1463 1461 1453 1453 1457 1454 1453 1446 1441 1436 1435 1432 1426 1421 1422 1422 1420 1417 1422 1422 1424 1424 1428 1429 1431 1434 1425 1414 1416 1423 1432 1433 1424 1422 1418
1465 1464 1463 1462 1461 1460 1459 1458 1459 1459 1460 1461 1460 1456 1452 1452 1455 1454 1449 1446 1443 1440 1438 1435 1432 1429 1428 1425 1427 1422 1424 1424 1423 1425 1428 1427 1433 1438 1421 1417 1420 1432 1428 1428 1427 1425 1419
1459 1459 1458 1457 1456 1455 1454 1454 1455 1456 1458 1460 1460 1457 1451 1450 1450 1453 1449 1447 1443 1438 1435 1435 1432 1430 1428 1429 1426 1425 1426 1424 1424 1424 1425 1426 1430 1436 1438 1434 1433 1434 1429 1427 1423 1418 1416
1454 1453 1453 1452 1451 1451 1450 1448 1451 1453 1455 1458 1457 1456 1452 1448 1449 1451 1452 1446 1442 1439 1435 1433 1431 1431 1433 1432 1431 1427 1425 1427 1426 1424 1426 1428 1434 1430 1430 1428 1427 1423 1424 1421 1420 1417 1413
1448 1448 1448 1447 1447 1446 1446 1445 1446 1449 1452 1455 1455 1455 1452 1449 1448 1448 1447 1444 1444 1440 1440 1435 1437 1436 1439 1442 1440 1434 1430 1430 1430 1428 1429 1429 1434 1430 1430 1423 1427 1418 1416 1416 1416 1413 1407
1442 1442 1442 1442 1442 1441 1441 1442 1443 1446 1448 1449 1452 1452 1454 1452 1448 1448 1445 1440 1441 1441 1438 1435 1435 1435 1438 1438 1437 1435 1433 1429 1429 1430 1431 1431 1435 1434 1432 1423 1424 1416 1402 1405 1402 1407 1404
1435 1436 1436 1436 1436 1437 1437 1438 1439 1441 1443 1446 1448 1452 1453 1453 1453 1449 1445 1442 1438 1438 1438 1436 1436 1436 1437 1435 1435 1433 1432 1430 1427 1427 1428 1432 1434 1435 1438 1429 1430 1404 1393 1391 1403 1396 1396
1429 1429 1429 1430 1430 1431 1432 1433 1435 1436 1438 1441 1446 1449 1450 1451 1447 1447 1446 1443 1440 1437 1436 1434 1435 1436 1435 1435 1437 1437 1435 1431 1425 1422 1422 1425 1433 1442 1439 1434 1420 1403 1397 1400 1401 1404 1396
1421 1422 1423 1423 1424 1424 1425 1427 1429 1431 1434 1436 1440 1445 1448 1448 1444 1445 1445 1445 1444 1442 1439 1436 1437 1436 1436 1439 1441 1441 1440 1429 1423 1419 1416 1422 1428 1437 1440 1434 1433 1404 1399 1394 1394 1407 1402
1414 1414 1415 1415 1416 1417 1418 1419 1422 1425 1429 1432 1433 1440 1446 1446 1442 1443 1444 1445 1445 1445 1445 1441 1439 1438 1438 1442 1444 1440 1437 1425 1429 1421 1421 1428 1434 1430 1434 1438 1423 1403 1400 1392 1402 1411 1405
1406 1406 1407 1407 1408 1410 1411 1412 1415 1419 1423 1426 1428 1433 1438 1440 1440 1440 1443 1443 1445 1446 1446 1444 1442 1440 1440 1441 1440 1437 1442 1429 1424 1418 1417 1420 1427 1428 1434 1431 1428 1409 1401 1404 1410 1406 1406
1398 1398 1399 1401 1403 1404 1405 1406 1409 1412 1416 1421 1424 1427 1433 1438 1435 1435 1436 1439 1441 1443 1446 1444 1445 1443 1440 1440 1440 1438 1439 1435 1428 1426 1415 1418 1418 1419 1419 1418 1420 1415 1416 1413 1414 1410 1414